Temp
-6 -7 -7 -7 -7 -7 -7 -8 -8 -8 -7 -7 -7 -7 -7 -8 -9 -8 -9 -8 -9 -9 -9 -9 -9 -9 -9 -9 -9 -9 -9 -10 -10 -11 -11 -11 -11 -11 -12 -11 -11 -11 -11 -11 -11 -11 -11 -11 -11
-7 -7 -7 -7 -7 -7 -8 -8 -8 -8 -7 -7 -7 -8 -7 -7 -8 -8 -9 -9 -9 -9 -9 -9 -9 -9 -9 -9 -9 -9 -9 -10 -10 -11 -11 -11 -11 -11 -11 -11 -11 -11 -11 -11 -11 -11 -11 -11 -11
-7 -7 -7 -7 -7 -7 -8 -9 -8 -9 -7 -8 -7 -8 -7 -8 -8 -8 -8 -8 -9 -9 -9 -9 -9 -9 -9 -9 -9 -9 -10 -10 -11 -11 -11 -11 -11 -11 -11 -11 -11 -12 -12 -12 -12 -12 -11 -11 -11
-7 -7 -7 -7 -7 -8 -9 -9 -9 -8 -7 -8 -8 -7 -8 -8 -8 -8 -8 -9 -9 -9 -9 -9 -9 -9 -9 -9 -10 -10 -10 -10 -10 -11 -11 -11 -11 -11 -11 -11 -12 -12 -12 -12 -12 -12 -12 -12 -11
-8 -8 -8 -7 -8 -8 -8 -10 -8 -8 -8 -8 -8 -7 -8 -8 -8 -8 -8 -9 -9 -9 -9 -9 -9 -9 -9 -10 -10 -10 -10 -10 -10 -10 -11 -11 -11 -12 -11 -12 -12 -12 -12 -12 -12 -12 -11 -11 -11
-8 -8 -8 -8 -8 -8 -10 -10 -8 -8 -9 -8 -8 -8 -8 -8 -8 -9 -8 -9 -9 -9 -9 -9 -9 -9 -10 -10 -10 -10 -10 -10 -10 -10 -10 -11 -11 -11 -11 -11 -11 -12 -12 -12 -11 -11 -11 -11 -11
-8 -8 -8 -8 -8 -8 -9 -10 -10 -8 -8 -9 -9 -8 -8 -8 -9 -9 -9 -9 -9 -9 -10 -10 -10 -10 -10 -10 -10 -10 -10 -10 -10 -11 -11 -11 -11 -11 -11 -11 -11 -11 -11 -11 -11 -11 -11 -11 -11
-8 -8 -8 -8 -9 -9 -10 -10 -8 -8 -9 -9 -9 -8 -8 -9 -9 -9 -9 -9 -9 -10 -10 -10 -10 -10 -10 -10 -10 -10 -11 -11 -11 -11 -11 -11 -11 -11 -11 -11 -11 -12 -12 -11 -11 -11 -11 -11 -11
-8 -8 -8 -8 -9 -10 -10 -9 -8 -8 -9 -9 -9 -8 -9 -10 -10 -10 -9 -9 -10 -10 -10 -10 -11 -10 -10 -10 -10 -11 -11 -11 -11 -11 -11 -11 -11 -11 -11 -11 -11 -11 -11 -11 -11 -11 -11 -11 -11
-9 -8 -9 -9 -9 -10 -9 -9 -8 -9 -9 -9 -9 -9 -10 -10 -10 -10 -10 -10 -10 -10 -10 -11 -11 -11 -11 -11 -11 -11 -11 -11 -11 -11 -11 -11 -11 -11 -11 -11 -11 -11 -11 -11 -11 -11 -11 -11 -11
-9 -9 -9 -9 -9 -9 -9 -9 -9 -9 -9 -9 -10 -9 -10 -10 -10 -10 -10 -10 -10 -10 -10 -11 -11 -11 -11 -11 -11 -11 -11 -11 -11 -11 -11 -11 -11 -11 -11 -11 -11 -12 -11 -11 -11 -11 -11 -11 -11
-10 -9 -9 -9 -9 -9 -9 -9 -9 -9 -10 -10 -10 -9 -9 -10 -10 -10 -10 -10 -10 -10 -11 -11 -11 -11 -11 -11 -11 -12 -12 -11 -12 -12 -12 -12 -12 -12 -12 -12 -12 -12 -12 -12 -11 -11 -11 -11 -11
-10 -10 -10 -10 -9 -9 -9 -9 -9 -10 -10 -10 -10 -9 -9 -10 -11 -11 -11 -11 -11 -11 -11 -11 -11 -12 -12 -12 -12 -12 -12 -12 -12 -12 -12 -12 -12 -12 -12 -12 -12 -12 -12 -12 -11 -11 -11 -11 -11
-10 -10 -10 -9 -10 -10 -10 -9 -10 -10 -10 -10 -11 -10 -10 -10 -11 -11 -11 -11 -11 -11 -11 -11 -12 -12 -12 -12 -12 -12 -12 -12 -12 -12 -12 -13 -12 -12 -12 -12 -12 -12 -12 -12 -12 -12 -11 -11 -11
-11 -10 -10 -10 -10 -10 -10 -9 -10 -10 -10 -10 -11 -11 -10 -10 -10 -11 -11 -11 -11 -12 -11 -12 -12 -12 -12 -13 -13 -12 -12 -12 -12 -12 -13 -13 -13 -13 -13 -12 -12 -12 -12 -12 -12 -12 -12 -12 -12
-11 -10 -10 -10 -11 -11 -11 -8 -10 -10 -10 -10 -11 -11 -11 -10 -10 -11 -11 -11 -11 -12 -12 -12 -12 -12 -13 -13 -13 -12 -13 -13 -13 -13 -13 -13 -13 -13 -13 -13 -13 -13 -13 -12 -12 -12 -12 -12 -12
-11 -10 -11 -11 -12 -12 -11 -9 -10 -11 -11 -11 -11 -11 -11 -11 -11 -11 -11 -11 -12 -12 -12 -12 -12 -12 -12 -13 -13 -13 -13 -13 -13 -13 -13 -13 -13 -13 -13 -13 -13 -13 -13 -13 -13 -12 -12 -12 -12
-12 -11 -11 -11 -11 -13 -11 -9 -10 -11 -11 -11 -12 -12 -12 -12 -12 -12 -12 -12 -12 -12 -12 -12 -12 -13 -13 -13 -13 -13 -13 -13 -14 -14 -14 -14 -14 -14 -14 -14 -13 -13 -13 -13 -13 -12 -12 -12 -12
-12 -12 -11 -11 -12 -13 -12 -11 -11 -11 -11 -11 -12 -12 -12 -12 -12 -12 -12 -12 -12 -12 -13 -12 -13 -13 -13 -14 -13 -13 -14 -14 -14 -14 -14 -14 -15 -14 -14 -14 -14 -14 -14 -13 -13 -13 -13 -13 -12
-12 -11 -11 -11 -12 -13 -12 -11 -11 -11 -11 -11 -12 -12 -12 -12 -11 -12 -12 -13 -13 -14 -13 -13 -13 -13 -14 -14 -14 -14 -14 -14 -14 -15 -15 -15 -15 -15 -14 -14 -14 -14 -14 -14 -14 -14 -14 -13 -13
-12 -12 -12 -13 -13 -13 -12 -11 -11 -11 -11 -11 -12 -13 -13 -13 -13 -12 -12 -13 -13 -13 -14 -13 -13 -14 -14 -14 -14 -14 -14 -14 -15 -15 -15 -15 -15 -15 -15 -14 -14 -14 -14 -14 -15 -15 -15 -15 -15
-13 -13 -14 -14 -14 -12 -14 -12 -10 -11 -11 -12 -12 -12 -13 -13 -14 -12 -11 -13 -13 -13 -13 -14 -14 -14 -14 -14 -14 -14 -15 -15 -15 -16 -16 -16 -15 -15 -15 -15 -15 -15 -15 -15 -15 -16 -16 -16 -17
-13 -14 -14 -15 -13 -14 -11 -14 -9 -12 -11 -12 -13 -13 -13 -12 -13 -13 -11 -13 -14 -14 -14 -14 -14 -14 -14 -15 -15 -15 -15 -16 -16 -16 -16 -16 -15 -15 -16 -15 -15 -15 -16 -16 -16 -17 -17 -17 -17
-14 -14 -14 -15 -14 -14 -10 -14 -12 -10 -11 -12 -13 -13 -13 -13 -13 -14 -12 -13 -14 -14 -14 -14 -15 -15 -15 -16 -15 -15 -16 -16 -16 -16 -16 -16 -16 -16 -15 -16 -16 -16 -16 -17 -18 -17 -18 -18 -18
-14 -14 -15 -15 -14 -14 -12 -14 -12 -10 -12 -12 -14 -13 -13 -13 -13 -14 -13 -13 -13 -14 -15 -15 -15 -15 -16 -17 -17 -16 -16 -17 -17 -16 -16 -16 -16 -16 -17 -17 -17 -17 -17 -18 -18 -18 -18 -18 -19
-15 -14 -15 -14 -14 -14 -14 -13 -11 -12 -12 -13 -13 -14 -13 -14 -14 -14 -14 -14 -13 -14 -13 -14 -15 -14 -15 -16 -17 -18 -18 -17 -17 -16 -16 -16 -17 -17 -17 -17 -17 -18 -18 -18 -18 -18 -19 -20 -20
-14 -15 -14 -17 -15 -16 -13 -12 -13 -13 -14 -14 -13 -13 -13 -14 -14 -14 -14 -14 -14 -14 -14 -14 -14 -14 -15 -16 -17 -17 -17 -17 -17 -17 -16 -16 -17 -17 -18 -18 -18 -18 -18 -18 -19 -19 -20 -21 -21
-16 -15 -16 -16 -15 -15 -14 -13 -14 -13 -14 -14 -13 -13 -14 -14 -14 -14 -14 -14 -14 -14 -14 -15 -14 -14 -15 -16 -16 -16 -17 -17 -16 -16 -17 -18 -18 -18 -18 -18 -18 -18 -18 -19 -20 -20 -21 -21 -22
-16 -16 -16 -16 -14 -15 -14 -15 -15 -14 -14 -15 -15 -14 -14 -14 -14 -14 -14 -15 -15 -14 -14 -15 -14 -14 -15 -16 -17 -18 -18 -16 -15 -17 -18 -18 -18 -18 -18 -19 -19 -19 -19 -20 -20 -21 -22 -22 -23
-16 -16 -16 -16 -16 -16 -16 -15 -15 -15 -15 -15 -15 -14 -14 -15 -15 -15 -15 -15 -15 -15 -15 -15 -15 -15 -15 -15 -16 -17 -15 -15 -16 -18 -18 -18 -18 -18 -19 -19 -19 -20 -20 -20 -21 -22 -22 -23 -23
Height
5877 5876 5875 5875 5877 5875 5875 5876 5877 5876 5873 5871 5871 5867 5869 5867 5863 5862 5858 5856 5858 5858 5857 5855 5853 5851 5849 5848 5847 5846 5844 5843 5842 5841 5840 5840 5838 5837 5837 5837 5837 5836 5837 5837 5836 5836 5836 5836 5836
5874 5874 5873 5872 5873 5871 5872 5881 5874 5872 5867 5869 5868 5866 5862 5863 5861 5858 5858 5854 5855 5854 5853 5851 5850 5848 5846 5845 5844 5843 5841 5840 5839 5838 5837 5837 5835 5834 5834 5833 5833 5833 5833 5833 5833 5833 5834 5834 5834
5870 5870 5870 5869 5869 5870 5871 5875 5872 5861 5864 5863 5862 5860 5859 5860 5855 5854 5853 5851 5851 5850 5848 5847 5846 5845 5843 5842 5841 5840 5838 5837 5836 5835 5834 5833 5833 5832 5831 5831 5831 5830 5830 5831 5831 5832 5832 5831 5831
5865 5865 5865 5865 5865 5867 5865 5869 5858 5862 5859 5859 5856 5856 5855 5852 5850 5849 5847 5847 5845 5845 5844 5843 5842 5841 5839 5839 5838 5837 5835 5833 5833 5832 5831 5831 5830 5829 5828 5827 5828 5828 5828 5829 5829 5829 5828 5829 5829
5860 5859 5858 5859 5861 5862 5863 5858 5856 5858 5852 5854 5851 5847 5850 5847 5845 5842 5842 5843 5840 5841 5840 5839 5838 5837 5836 5835 5834 5834 5832 5831 5829 5829 5828 5827 5827 5826 5824 5824 5825 5826 5826 5826 5827 5827 5827 5827 5827
5854 5854 5853 5853 5855 5856 5858 5851 5847 5852 5849 5847 5846 5840 5845 5842 5840 5837 5836 5836 5835 5836 5834 5833 5833 5833 5832 5831 5830 5830 5829 5827 5826 5825 5825 5824 5824 5823 5822 5821 5822 5822 5823 5823 5824 5823 5823 5823 5823
5849 5846 5846 5847 5849 5849 5850 5845 5834 5846 5844 5842 5838 5836 5839 5837 5834 5831 5830 5831 5831 5831 5829 5828 5828 5829 5828 5827 5826 5826 5825 5824 5823 5822 5821 5821 5820 5819 5818 5818 5818 5819 5820 5819 5819 5819 5819 5820 5819
5840 5840 5839 5841 5843 5843 5844 5836 5834 5837 5836 5834 5830 5829 5829 5833 5828 5825 5824 5824 5825 5824 5822 5822 5823 5823 5823 5823 5822 5821 5820 5819 5819 5818 5818 5817 5816 5815 5814 5814 5814 5815 5815 5815 5815 5814 5814 5813 5813
5832 5831 5832 5836 5836 5836 5832 5828 5830 5831 5827 5827 5821 5823 5825 5825 5821 5819 5817 5817 5819 5819 5817 5817 5817 5817 5817 5817 5816 5815 5815 5814 5814 5813 5813 5813 5812 5811 5810 5810 5810 5810 5810 5810 5809 5808 5808 5807 5807
5824 5823 5826 5827 5826 5823 5825 5825 5820 5825 5821 5818 5815 5818 5818 5816 5815 5814 5812 5811 5811 5812 5812 5811 5811 5810 5810 5810 5810 5809 5809 5809 5808 5809 5809 5808 5808 5807 5807 5807 5806 5806 5806 5805 5804 5803 5803 5802 5801
5815 5812 5816 5818 5816 5813 5814 5817 5817 5813 5814 5807 5810 5808 5810 5809 5808 5807 5806 5805 5804 5805 5807 5806 5806 5804 5803 5803 5803 5803 5803 5803 5803 5803 5803 5804 5803 5803 5803 5803 5802 5802 5801 5800 5799 5798 5797 5796 5795
5805 5805 5804 5807 5808 5806 5805 5805 5809 5809 5804 5806 5798 5792 5797 5803 5800 5799 5798 5798 5798 5800 5800 5800 5799 5797 5797 5796 5797 5796 5796 5796 5797 5797 5797 5797 5798 5798 5798 5798 5798 5796 5795 5794 5793 5792 5791 5789 5788
5796 5797 5794 5797 5797 5797 5798 5798 5797 5797 5800 5797 5798 5783 5788 5795 5791 5791 5791 5790 5791 5793 5793 5793 5791 5791 5790 5790 5790 5790 5790 5790 5790 5791 5791 5791 5791 5791 5792 5792 5790 5789 5788 5787 5785 5784 5782 5781 5780
5787 5785 5787 5787 5788 5790 5789 5790 5787 5790 5792 5791 5786 5776 5780 5783 5783 5783 5784 5784 5784 5786 5787 5786 5785 5785 5784 5784 5783 5783 5783 5784 5784 5784 5784 5784 5784 5785 5785 5784 5783 5782 5780 5778 5776 5775 5774 5773 5771
5775 5774 5778 5779 5779 5780 5779 5777 5779 5782 5781 5779 5779 5770 5768 5774 5775 5776 5776 5775 5777 5778 5779 5778 5778 5778 5777 5777 5776 5776 5776 5777 5777 5777 5778 5778 5777 5777 5777 5777 5775 5773 5771 5770 5768 5767 5765 5763 5761
5765 5766 5770 5774 5770 5771 5768 5768 5772 5771 5769 5768 5766 5763 5764 5761 5767 5768 5768 5766 5770 5771 5772 5771 5771 5770 5770 5770 5770 5769 5769 5770 5770 5770 5770 5770 5769 5769 5769 5768 5766 5764 5762 5760 5758 5756 5753 5751 5749
5758 5760 5759 5761 5760 5760 5757 5758 5761 5759 5759 5755 5755 5755 5755 5756 5757 5761 5761 5759 5761 5763 5764 5763 5762 5762 5762 5761 5762 5761 5762 5762 5762 5763 5762 5762 5761 5760 5760 5759 5757 5755 5752 5750 5747 5745 5743 5740 5736
5749 5747 5748 5749 5752 5749 5749 5750 5750 5748 5748 5750 5747 5739 5746 5746 5750 5752 5750 5751 5752 5755 5757 5754 5754 5754 5754 5753 5753 5753 5754 5755 5754 5754 5754 5753 5752 5751 5751 5750 5747 5745 5742 5739 5736 5733 5730 5727 5723
5737 5737 5738 5741 5744 5742 5740 5741 5741 5739 5738 5738 5740 5735 5739 5734 5739 5741 5739 5741 5742 5745 5749 5747 5745 5746 5745 5744 5745 5745 5746 5746 5746 5746 5745 5744 5743 5743 5743 5741 5738 5735 5731 5729 5725 5720 5717 5713 5708
5727 5725 5730 5731 5733 5732 5732 5731 5731 5732 5729 5731 5731 5728 5727 5731 5725 5730 5730 5732 5732 5735 5738 5737 5737 5736 5736 5736 5736 5737 5738 5738 5737 5737 5737 5736 5735 5735 5733 5731 5727 5724 5720 5717 5712 5707 5702 5698 5694
5717 5717 5720 5720 5722 5719 5718 5718 5720 5723 5721 5721 5721 5722 5718 5721 5718 5717 5721 5724 5723 5725 5728 5728 5728 5727 5726 5726 5728 5728 5729 5729 5729 5729 5728 5727 5727 5726 5723 5719 5716 5712 5708 5705 5700 5695 5688 5683 5678
5703 5712 5709 5708 5707 5704 5710 5700 5713 5713 5713 5713 5711 5712 5714 5711 5708 5707 5709 5713 5714 5714 5716 5717 5718 5717 5716 5718 5718 5719 5719 5720 5721 5720 5719 5718 5717 5715 5712 5708 5704 5701 5697 5693 5687 5682 5676 5671 5665
5693 5697 5696 5695 5693 5693 5701 5689 5704 5706 5704 5706 5705 5702 5700 5701 5700 5697 5699 5703 5704 5702 5704 5705 5706 5706 5707 5708 5709 5709 5709 5712 5711 5710 5709 5707 5707 5704 5701 5697 5693 5690 5686 5681 5676 5671 5665 5660 5652
5683 5683 5684 5683 5682 5675 5690 5680 5689 5696 5698 5695 5693 5695 5693 5690 5691 5686 5689 5692 5694 5692 5694 5694 5696 5695 5697 5696 5699 5699 5703 5702 5701 5700 5698 5697 5696 5693 5690 5685 5683 5679 5675 5670 5666 5660 5655 5647 5641
5672 5673 5668 5667 5665 5664 5683 5669 5671 5686 5686 5683 5680 5682 5682 5680 5681 5676 5679 5681 5683 5683 5683 5684 5684 5684 5683 5685 5688 5690 5692 5691 5690 5688 5687 5686 5685 5682 5678 5674 5671 5668 5664 5659 5655 5649 5644 5637 5630
5657 5660 5654 5647 5652 5656 5665 5655 5662 5668 5668 5668 5669 5668 5668 5672 5671 5665 5668 5669 5670 5672 5672 5671 5670 5672 5671 5672 5675 5679 5679 5680 5678 5676 5675 5675 5674 5671 5667 5664 5661 5658 5654 5650 5645 5639 5634 5627 5621
5650 5639 5650 5640 5642 5638 5646 5652 5651 5657 5658 5657 5657 5657 5655 5661 5662 5658 5656 5659 5661 5662 5662 5662 5658 5660 5661 5662 5665 5667 5667 5666 5665 5664 5662 5665 5663 5660 5657 5654 5650 5648 5644 5640 5634 5630 5624 5617 5611
5630 5639 5633 5627 5626 5624 5634 5639 5639 5643 5644 5643 5644 5645 5647 5648 5649 5646 5645 5649 5650 5652 5653 5653 5650 5652 5651 5653 5654 5654 5655 5654 5652 5652 5654 5653 5652 5649 5647 5644 5642 5639 5635 5630 5626 5620 5614 5608 5602
5619 5621 5615 5617 5613 5613 5622 5627 5620 5627 5629 5630 5631 5631 5636 5636 5637 5637 5635 5638 5639 5640 5642 5643 5641 5643 5643 5642 5643 5644 5643 5640 5641 5642 5643 5643 5641 5639 5637 5634 5632 5630 5625 5621 5617 5611 5605 5600 5594
5601 5607 5605 5605 5607 5605 5603 5610 5610 5614 5615 5614 5617 5616 5621 5625 5625 5626 5625 5628 5630 5631 5632 5631 5630 5633 5633 5632 5633 5632 5630 5631 5630 5634 5634 5632 5631 5629 5627 5626 5623 5621 5617 5613 5608 5602 5597 5592 5586
Wind_Speed
14 15 15 15 13 13 9 20 7 28 22 21 19 24 23 24 28 34 33 28 22 23 22 22 22 21 19 17 17 18 16 15 16 16 19 19 18 17 17 15 14 13 13 14 13 13 13 14 15
17 19 19 18 15 16 7 16 23 32 30 20 22 24 28 27 27 30 30 31 25 24 25 24 24 21 19 17 18 19 18 15 15 18 19 20 21 20 20 18 17 16 15 14 13 13 12 12 12
20 21 21 21 19 16 7 11 27 36 27 27 25 29 29 25 30 31 32 31 28 27 26 25 25 21 18 18 20 20 19 17 17 19 20 20 21 21 21 19 17 16 15 14 13 13 13 13 13
23 23 23 23 21 19 16 19 40 34 32 30 31 27 29 31 32 32 32 31 30 29 28 27 25 21 19 18 21 20 18 18 19 20 21 22 21 20 19 18 17 15 14 15 14 15 15 15 15
25 26 27 25 21 21 19 31 35 28 37 32 33 32 27 34 33 34 33 31 32 31 29 29 25 20 17 18 20 20 19 19 20 21 23 23 22 20 17 17 16 16 16 15 16 17 18 19 18
28 29 30 28 25 22 16 37 42 30 35 36 35 37 29 33 35 35 35 32 31 30 30 28 24 20 17 16 19 21 21 19 20 22 23 23 22 20 18 17 16 15 15 17 19 20 20 19 18
32 33 34 31 28 29 29 33 51 31 34 35 38 36 32 34 35 37 38 35 32 31 29 27 25 21 20 19 20 21 21 21 22 22 22 23 22 19 18 16 14 15 18 19 20 19 19 18 17
34 35 36 33 30 33 27 41 45 34 37 38 41 39 40 32 35 36 38 37 33 31 30 27 26 24 23 22 22 23 22 23 24 23 23 23 21 19 18 17 17 19 20 21 21 20 20 20 20
39 37 38 33 31 30 35 44 39 33 40 39 44 43 38 34 38 40 39 38 35 33 31 30 28 27 26 25 24 24 24 24 24 23 24 23 22 20 21 20 22 22 21 20 21 21 22 23 23
40 43 39 35 35 42 42 43 45 37 43 43 47 43 39 39 38 39 40 39 37 35 32 32 29 30 28 28 28 26 26 26 26 25 25 24 24 22 23 25 24 23 22 23 23 25 26 28 29
42 49 41 39 39 42 42 40 42 45 42 50 44 47 41 41 39 38 40 41 39 36 34 32 32 32 31 31 30 30 29 28 27 26 25 25 25 26 26 26 24 24 25 26 28 30 32 34 36
45 46 46 42 41 42 46 43 39 42 47 43 50 51 47 39 38 38 40 40 40 34 35 34 34 34 33 34 33 33 31 30 29 28 26 26 28 28 26 25 26 26 27 29 31 33 35 38 39
43 43 46 44 46 45 44 44 42 44 41 45 43 55 50 41 39 37 38 39 38 35 35 36 37 36 35 36 34 33 33 32 30 29 28 28 29 29 27 28 29 30 31 33 35 36 38 39 40
41 44 43 44 42 41 42 43 45 44 41 43 48 55 49 44 40 39 37 38 37 36 36 38 39 37 38 36 35 34 34 33 32 32 31 30 30 30 31 32 33 35 36 38 39 39 38 40 41
43 44 42 43 42 41 44 49 46 44 42 45 45 52 51 43 41 37 37 39 36 37 36 39 38 36 36 37 36 37 36 35 34 33 33 33 32 33 34 36 38 39 40 42 42 42 43 44 47
43 45 41 39 42 41 45 49 43 43 42 45 44 48 45 49 41 37 36 40 36 38 38 38 36 36 37 37 37 37 37 36 35 35 35 36 36 36 38 40 41 41 44 45 46 46 48 49 51
43 41 40 40 40 42 47 48 42 42 41 46 45 47 46 43 42 38 37 39 39 40 37 37 37 38 39 39 37 38 37 37 36 36 38 38 38 39 40 42 43 44 46 48 49 50 49 50 53
41 44 42 41 35 32 41 46 44 41 42 39 43 55 48 47 42 41 42 39 41 42 38 37 39 40 39 41 40 39 38 38 37 38 39 40 40 41 40 43 44 46 48 50 50 51 53 54 57
44 45 45 43 41 40 48 45 42 45 44 43 41 49 42 47 39 45 48 42 45 43 39 39 41 40 41 42 41 41 40 40 39 39 40 41 41 41 43 45 47 48 50 52 52 55 57 59 62
49 52 48 45 42 44 46 45 45 45 48 46 44 49 49 40 46 38 44 43 43 43 39 41 43 42 44 43 43 41 41 41 41 41 42 43 43 44 45 48 50 50 53 54 56 58 58 63 64
50 49 46 46 44 47 47 47 47 46 48 47 46 43 50 44 45 43 37 39 43 42 42 44 43 43 46 45 42 41 42 42 42 43 44 45 47 47 49 51 50 52 55 56 57 56 58 58 58
53 45 44 45 46 52 44 53 45 45 45 46 48 45 39 42 40 44 39 33 38 40 42 44 42 47 47 44 43 42 43 43 43 45 48 49 50 51 52 51 51 55 57 56 55 54 56 56 54
50 47 46 44 51 50 50 54 44 42 45 43 44 49 50 48 43 40 42 33 37 43 43 45 45 48 45 44 43 43 43 42 46 48 50 52 51 53 52 52 54 56 56 53 54 55 54 52 55
46 48 48 48 50 51 49 50 50 48 46 48 47 42 41 46 43 38 39 36 39 46 47 47 48 49 46 46 43 43 42 45 47 50 52 53 54 54 51 53 54 54 51 52 54 52 51 53 54
51 48 50 54 56 61 50 56 61 55 51 53 48 45 43 50 51 45 45 39 36 44 48 49 48 51 50 42 42 42 44 47 50 53 54 55 55 53 54 53 50 49 51 53 48 49 51 51 51
44 48 51 57 53 54 48 58 58 51 49 45 46 47 48 42 44 49 43 41 38 36 39 50 54 51 48 43 44 45 46 50 54 57 58 55 58 55 53 47 46 48 50 45 48 49 50 50 51
46 49 48 46 48 49 51 53 51 47 44 47 49 47 49 45 43 44 48 44 38 35 38 39 49 49 45 47 46 46 51 54 57 60 58 58 58 53 47 45 47 49 44 45 47 48 48 48 50
52 46 39 47 57 53 50 50 48 44 44 44 50 53 52 49 45 41 37 37 33 35 37 38 44 48 50 47 47 50 53 57 60 58 62 61 54 47 43 45 45 40 44 45 46 46 46 47 45
44 41 46 43 51 59 55 39 46 45 41 43 45 48 46 47 45 43 34 34 30 32 35 39 42 41 48 50 53 56 60 62 59 64 61 56 49 44 44 40 35 39 42 43 44 45 45 43 41
46 45 46 56 62 50 42 44 47 47 43 46 47 46 47 44 46 45 47 45 39 35 35 39 43 43 46 50 54 60 60 57 64 59 49 47 43 43 36 33 37 40 40 42 42 42 41 38 39
Wind_Direction
285 282 280 280 286 292 321 3 311 259 282 272 281 279 289 279 264 278 295 299 299 299 298 298 298 298 292 288 288 289 289 286 289 293 297 300 305 311 310 309 303 303 299 297 295 297 296 293 288
281 283 279 277 279 289 52 317 257 261 273 306 284 280 281 288 291 286 287 289 294 292 292 295 296 298 294 283 278 278 286 290 294 294 297 297 300 303 306 309 310 310 308 304 301 301 299 296 298
279 278 279 274 277 279 240 287 251 260 276 287 284 280 287 284 280 284 286 288 291 290 290 290 293 295 292 283 275 272 283 291 294 293 293 292 292 295 303 306 307 308 309 304 301 297 295 297 296
277 277 277 277 280 284 251 258 256 256 279 280 284 283 286 281 280 284 284 286 287 287 288 289 289 289 287 284 271 268 277 285 292 294 291 289 289 293 298 300 302 299 298 295 294 296 298 297 295
273 277 277 277 279 279 286 277 266 272 278 280 282 283 284 286 284 282 284 285 282 286 287 288 288 284 280 274 274 272 274 278 285 290 291 291 293 293 293 296 296 293 293 295 300 304 305 304 301
273 276 275 278 278 273 259 256 276 280 278 281 282 284 291 289 286 283 283 281 283 285 286 285 285 280 274 275 278 276 275 277 280 284 290 293 293 293 295 297 295 293 296 301 305 305 305 303 300
275 275 278 276 278 272 267 267 278 283 280 283 281 277 291 288 283 284 283 283 284 284 283 281 280 275 276 278 283 276 272 274 276 281 285 287 289 291 291 290 289 292 294 296 297 298 297 296 299
271 273 276 275 277 276 279 272 272 287 283 280 278 282 289 298 288 280 279 281 282 281 280 278 276 273 276 283 282 277 269 268 270 275 278 280 282 284 283 278 281 286 289 293 294 296 298 300 300
270 270 273 273 270 272 258 268 284 285 278 278 278 284 291 288 281 278 278 279 280 277 276 274 272 275 279 282 278 274 269 264 265 269 272 275 277 277 277 277 282 286 290 293 297 299 300 300 299
269 275 272 265 261 262 265 275 282 277 277 278 284 285 286 283 279 278 277 276 276 278 273 270 270 275 280 282 280 276 272 265 262 264 268 269 272 274 276 278 279 283 286 290 293 297 297 297 296
273 276 273 265 260 262 270 268 271 278 277 286 281 284 281 281 278 276 274 274 274 275 273 269 271 275 281 281 279 278 274 268 264 263 265 266 270 271 271 271 274 284 290 293 296 298 298 296 293
273 273 272 271 265 264 270 266 267 268 279 278 287 287 285 283 276 270 269 270 272 276 270 270 273 276 279 280 279 276 274 270 265 263 264 266 270 270 270 273 282 288 293 295 295 293 293 293 292
271 275 272 272 270 270 269 270 267 266 271 278 277 280 284 284 274 269 268 265 269 269 266 269 272 274 276 277 276 274 273 270 266 264 265 268 271 273 274 280 286 290 289 290 293 294 294 294 293
272 271 274 275 275 274 272 273 270 273 274 274 277 278 280 281 269 271 268 265 266 262 266 269 271 274 276 275 273 272 270 267 265 265 266 267 268 271 277 282 288 291 293 294 295 296 295 293 291
271 273 274 276 277 275 273 273 276 278 276 275 273 277 280 278 269 269 264 263 264 261 264 269 272 273 272 271 270 270 268 267 265 266 266 267 269 273 279 283 288 290 293 296 295 295 294 294 293
272 275 283 278 276 275 273 279 276 278 274 274 275 273 274 278 273 266 265 267 264 261 264 269 271 270 270 270 269 268 267 265 263 263 264 266 269 274 278 284 286 290 294 295 295 295 295 296 296
277 282 276 275 276 277 276 279 282 276 272 277 275 270 272 275 273 269 267 269 266 264 265 267 269 269 270 270 268 266 264 263 262 263 265 267 271 275 279 284 287 292 293 294 294 295 297 299 303
279 277 277 276 278 290 275 281 277 271 271 269 269 275 277 274 271 271 270 269 266 268 265 267 271 270 269 269 267 265 263 262 263 264 267 270 273 277 281 285 288 290 292 294 296 299 300 302 304
273 276 277 276 279 260 273 276 279 279 276 275 270 274 277 280 275 269 267 267 267 265 263 267 268 269 267 265 264 264 264 264 264 266 269 271 274 278 282 286 288 290 293 296 300 301 301 302 306
273 276 276 275 273 266 270 274 275 272 275 272 271 275 278 276 281 271 272 265 265 261 260 267 267 269 266 264 263 264 264 264 265 267 269 271 274 280 284 288 290 292 296 298 301 301 303 305 305
272 275 278 278 274 272 272 270 274 277 277 275 272 272 277 278 277 278 275 268 264 261 262 262 266 268 267 264 264 262 262 264 265 268 269 273 277 281 286 289 291 294 295 299 301 302 306 306 305
274 278 274 273 267 268 267 274 273 276 279 280 282 278 276 278 280 278 272 260 263 257 255 257 262 266 268 267 264 263 262 264 266 268 271 275 279 284 287 290 291 294 297 300 302 306 309 307 306
271 272 267 257 264 263 273 264 270 275 276 280 273 273 280 281 284 280 281 258 254 254 251 254 260 264 265 263 263 263 263 265 267 271 274 277 280 284 292 291 292 295 299 301 303 307 307 306 310
265 264 265 261 268 258 274 265 274 275 281 278 275 273 263 275 281 275 282 278 252 252 252 255 259 260 261 260 263 263 265 267 270 273 276 277 282 288 290 291 294 298 300 302 307 306 305 310 311
268 268 265 264 261 263 275 263 275 275 276 277 282 275 257 274 279 267 279 278 273 257 252 257 259 256 253 254 261 262 265 269 271 272 274 278 283 291 294 292 296 298 301 306 304 305 308 311 313
264 266 264 267 269 278 270 266 277 277 277 279 273 274 273 267 273 268 275 273 271 271 270 256 255 263 258 247 251 258 265 268 269 272 276 281 285 291 291 292 297 301 304 303 306 308 309 312 313
272 260 273 266 266 263 269 275 277 279 279 271 271 269 272 270 264 262 267 268 267 266 271 269 256 258 260 255 249 254 259 264 269 272 277 283 287 291 289 293 297 302 301 304 306 308 310 312 311
260 268 254 261 263 251 276 276 277 271 272 265 265 263 262 267 261 263 273 271 265 263 263 264 266 261 256 256 255 256 260 265 267 272 277 283 290 285 290 294 299 300 301 305 307 310 311 312 310
251 244 245 241 247 277 273 266 260 260 259 261 264 264 260 264 269 265 270 278 273 267 259 258 260 261 259 253 254 258 260 263 270 270 277 285 282 284 288 296 298 300 303 305 308 310 312 311 311
222 233 242 252 264 248 255 257 254 260 258 250 252 257 256 260 261 270 277 279 279 272 267 257 255 259 259 257 257 259 265 269 268 276 277 279 280 284 294 296 300 299 304 306 307 310 312 310 311